Weather History for Pittsburg, KS

Change the Weather History Date:

Friday, October 12, 2012

  Actual Average (KJLN) Record (KJLN)
Temperature  
Mean Temperature 60 °F 61 °F  
Max Temperature 64 °F 73 °F 91 °F (1978)
Min Temperature 56 °F 49 °F 32 °F (1965)
Degree Days  
Heating Degree Days 5 6  
Month to date heating degree days 58  
Since 1 July heating degree days 100  
Cooling Degree Days 0 2  
Month to date cooling degree days 29  
Year to date cooling degree days 1671  
Growing Degree Days 10 (Base 50)    
Moisture  
Dew Point 60 °F    
Average Humidity 100    
Maximum Humidity 100    
Minimum Humidity 100    
Precipitation  
Precipitation 0.66 in 0.13 in 2.32 in (2012)
Month to date precipitation 1.58  
Year to date precipitation 37.50  
Sea Level Pressure  
Sea Level Pressure 30.15 in    
Wind  
Wind Speed 6 mph (East)    
Max Wind Speed 15 mph    
Max Gust Speed 22 mph    
Visibility 8 miles    
Events Rain , Thunderstorm    
T = Trace of Precipitation, MM = Missing Value Source: NWS Daily Summary

Daily Weather History Graph

Daily Weather History Graph

Search for Another Location

Airport:

Trip Planner

Search our weather history database for the weather conditions in past years. The results will help you decide how hot, cold, wet, or windy it might be!

Date:

Astronomy

Oct. 12, 2012 Rise Set
Actual Time 7:24 AM CDT 6:45 PM CDT
Civil Twilight 6:58 AM CDT 7:11 PM CDT
Nautical Twilight 6:28 AM CDT 7:41 PM CDT
Astronomical Twilight 5:57 AM CDT 8:11 PM CDT
Moon 4:11 AM CDT (10/12) 4:52 PM CDT (10/12)
Length of Visible Light 12h 13m
Length of Day
11h 20m
Waning Crescent, 10% of the Moon is Illuminated
Oct 12
Waning Crescent
Oct 15
New
Oct 21
First Quarter
Oct 29
Full
Nov 6
Last Quarter

Hourly Weather History & Observations

Time (CDT) Temp. Dew Point Humidity Pressure Visibility Wind Dir Wind Speed Gust Speed Precip Events Conditions
12:15 AM - - N/A% 30.13 in 10.0 mi Calm Calm - N/A   Scattered Clouds
12:35 AM 64.0 °F 64.2 °F 100% 30.13 in 10.0 mi Calm Calm - N/A   Scattered Clouds
12:55 AM 64.0 °F 64.2 °F 100% 30.12 in 10.0 mi SE 3.5 mph - N/A   Mostly Cloudy
1:15 AM 64.0 °F 64.4 °F 100% 30.12 in 10.0 mi South 3.5 mph - N/A Thunderstorm Mostly Cloudy
1:35 AM 64.0 °F 64.4 °F 100% 30.11 in 10.0 mi SSE 3.5 mph - N/A Rain , Thunderstorm Light Thunderstorms and Rain
1:55 AM 64.0 °F 64.4 °F 100% 30.11 in 10.0 mi Calm Calm - N/A Rain , Thunderstorm Light Thunderstorms and Rain
2:15 AM 64.0 °F 64.4 °F 100% 30.12 in 10.0 mi North 8.1 mph - N/A Thunderstorm Thunderstorm
2:35 AM 63.0 °F 63.1 °F 100% 30.11 in 7.0 mi ENE 6.9 mph - N/A Thunderstorm Thunderstorm
2:55 AM 61.7 °F 61.7 °F 100% 30.10 in 7.0 mi NE 6.9 mph - N/A Thunderstorm Thunderstorm
3:15 AM 61.7 °F 61.7 °F 100% 30.12 in 10.0 mi North 6.9 mph - N/A Thunderstorm Thunderstorm
3:35 AM 61.3 °F 61.5 °F 100% 30.12 in 7.0 mi SE 3.5 mph - N/A Rain , Thunderstorm Light Thunderstorms and Rain
3:55 AM - - N/A% 30.11 in 7.0 mi East 5.8 mph - 0.02 in Rain , Thunderstorm Light Thunderstorms and Rain
4:15 AM 59.7 °F - N/A% 30.12 in 5.0 mi Calm Calm - 0.08 in Rain , Thunderstorm Heavy Thunderstorms and Rain
4:35 AM 60.3 °F - N/A% 30.13 in 7.0 mi NNE 15.0 mph 21.9 mph 0.15 in Rain , Thunderstorm Thunderstorms and Rain
4:55 AM 59.5 °F - N/A% 30.14 in 3.0 mi ENE 10.4 mph - 0.44 in Rain , Thunderstorm Heavy Thunderstorms and Rain
5:15 AM 59.0 °F - N/A% 30.15 in 5.0 mi ENE 10.4 mph 18.4 mph 0.14 in Rain , Thunderstorm Thunderstorms and Rain
5:35 AM 59.0 °F - N/A% 30.16 in 7.0 mi ENE 9.2 mph - 0.16 in Rain , Thunderstorm Light Thunderstorms and Rain
5:55 AM 59.0 °F - N/A% 30.16 in 5.0 mi East 12.7 mph 16.1 mph 0.19 in Rain , Thunderstorm Rain
6:15 AM 59.0 °F - N/A% 30.17 in 7.0 mi ENE 10.4 mph - 0.01 in Rain , Thunderstorm Light Thunderstorms and Rain
6:35 AM 59.0 °F 59.2 °F 100% 30.18 in 7.0 mi ENE 10.4 mph - 0.01 in Thunderstorm Mostly Cloudy
6:55 AM 57.6 °F 57.6 °F 100% 30.19 in 7.0 mi East 8.1 mph 11.5 mph 0.01 in   Mostly Cloudy
7:15 AM 56.7 °F 56.8 °F 100% 30.19 in 7.0 mi ENE 11.5 mph - N/A   Overcast
7:35 AM 56.5 °F 56.7 °F 100% 30.19 in 7.0 mi ENE 10.4 mph 16.1 mph N/A Thunderstorm Mostly Cloudy
7:55 AM 56.5 °F 56.7 °F 100% 30.19 in 7.0 mi East 9.2 mph - N/A   Mostly Cloudy
8:15 AM 56.5 °F 56.7 °F 100% 30.19 in 7.0 mi East 9.2 mph 17.3 mph N/A   Scattered Clouds
8:35 AM 56.5 °F 56.7 °F 100% 30.21 in 7.0 mi East 9.2 mph - N/A   Mostly Cloudy
9:15 AM 56.5 °F 56.7 °F 100% 30.22 in 7.0 mi ENE 11.5 mph - N/A   Mostly Cloudy
9:35 AM 56.5 °F 56.7 °F 100% 30.22 in 7.0 mi ENE 10.4 mph - N/A   Mostly Cloudy
9:55 AM 56.5 °F 56.7 °F 100% 30.23 in 7.0 mi ENE 9.2 mph - N/A   Mostly Cloudy
10:15 AM 56.5 °F 56.7 °F 100% 30.23 in 7.0 mi East 10.4 mph - N/A   Overcast
10:35 AM 56.5 °F 56.7 °F 100% 30.24 in 7.0 mi ENE 6.9 mph - N/A   Overcast
11:15 AM 56.5 °F 56.7 °F 100% 30.24 in 7.0 mi East 6.9 mph - N/A   Overcast
11:35 AM 56.5 °F 56.7 °F 100% 30.24 in 7.0 mi East 11.5 mph 16.1 mph N/A   Overcast
12:15 PM 57.4 °F 57.4 °F 100% 30.21 in 7.0 mi East 11.5 mph - N/A   Overcast
12:35 PM 59.0 °F 59.2 °F 100% 30.21 in 7.0 mi East 11.5 mph 17.3 mph N/A   Overcast
12:55 PM 59.0 °F 59.2 °F 100% 30.21 in 7.0 mi East 9.2 mph - N/A   Overcast
1:35 PM 59.0 °F 59.2 °F 100% 30.20 in 7.0 mi East 6.9 mph - N/A   Overcast
1:55 PM 59.2 °F 59.4 °F 100% 30.19 in 5.0 mi East 8.1 mph - N/A   Overcast
2:15 PM 59.9 °F 60.3 °F 100% 30.17 in 5.0 mi East 9.2 mph - N/A   Overcast
2:35 PM 60.1 °F 60.1 °F 100% 30.16 in 5.0 mi East 10.4 mph - N/A   Overcast
2:55 PM 60.3 °F 60.4 °F 100% 30.15 in 5.0 mi East 9.2 mph - N/A   Overcast
3:15 PM 60.3 °F 60.4 °F 100% 30.15 in 5.0 mi East 8.1 mph - N/A   Overcast
3:35 PM 60.3 °F 60.4 °F 100% 30.16 in 5.0 mi ESE 4.6 mph - N/A   Overcast
3:55 PM 60.3 °F 60.4 °F 100% 30.16 in 5.0 mi East 4.6 mph - N/A   Overcast
4:15 PM 60.6 °F 60.6 °F 100% 30.16 in 5.0 mi East 5.8 mph - N/A   Overcast
4:35 PM 61.7 °F 61.7 °F 100% 30.15 in 7.0 mi East 5.8 mph - N/A   Overcast
5:15 PM 61.7 °F 61.9 °F 100% 30.15 in 10.0 mi ESE 3.5 mph - N/A   Scattered Clouds
5:55 PM 61.7 °F 61.7 °F 100% 30.14 in 10.0 mi East 4.6 mph - N/A   Scattered Clouds
6:15 PM 61.7 °F 61.7 °F 100% 30.13 in 10.0 mi East 3.5 mph - N/A   Clear
6:35 PM 61.7 °F 61.7 °F 100% 30.13 in 10.0 mi East 4.6 mph - N/A   Clear
6:55 PM 61.7 °F 61.7 °F 100% 30.12 in 10.0 mi ENE 4.6 mph - N/A Rain Light Rain
7:15 PM 61.7 °F 61.7 °F 100% 30.13 in 10.0 mi East 3.5 mph - N/A   Clear
7:35 PM 61.2 °F 61.3 °F 100% 30.13 in 10.0 mi East 4.6 mph - N/A   Clear
7:55 PM 60.3 °F 60.6 °F 100% 30.12 in 10.0 mi East 4.6 mph - N/A   Clear
8:15 PM 60.3 °F - N/A% 30.12 in 10.0 mi ESE 4.6 mph - N/A   Clear
8:35 PM 60.3 °F - N/A% 30.12 in 10.0 mi ESE 8.1 mph - N/A   Scattered Clouds
9:15 PM 60.3 °F - N/A% 30.12 in 10.0 mi SE 8.1 mph - N/A   Overcast
9:35 PM 60.3 °F - N/A% 30.12 in 10.0 mi ESE 3.5 mph - N/A Thunderstorm Overcast
9:55 PM 60.3 °F - N/A% 30.12 in 10.0 mi ENE 5.8 mph - N/A   Overcast
10:15 PM 60.3 °F - N/A% 30.14 in 10.0 mi NE 5.8 mph - N/A Thunderstorm Overcast
10:55 PM 60.3 °F - N/A% 30.13 in 7.0 mi East 4.6 mph - N/A   Overcast
11:15 PM 60.3 °F - N/A% 30.11 in 5.0 mi East 8.1 mph - N/A   Haze
11:35 PM 60.3 °F - N/A% 30.11 in 5.0 mi ESE 6.9 mph - N/A   Haze
11:55 PM 60.3 °F - N/A% 30.10 in 7.0 mi ESE 5.8 mph - N/A   Overcast